Weather History for Melfa, VA

Change the Weather History Date:

Tuesday, November 20, 2012

  Actual Average (KWAL) Record (KWAL)
Temperature  
Mean Temperature 50 °F 48 °F  
Max Temperature 57 °F 57 °F 77 °F (1985)
Min Temperature 44 °F 40 °F 27 °F (1984)
Degree Days  
Heating Degree Days 14    
Month to date heating degree days  
Since 1 July heating degree days  
Cooling Degree Days 0    
Month to date cooling degree days  
Year to date cooling degree days  
Moisture  
Dew Point 45 °F    
Average Humidity 80    
Maximum Humidity 93    
Minimum Humidity 63    
Precipitation  
Precipitation 0.00 in 0.10 in 0.17 in (2003)
Month to date precipitation 1.89  
Year to date precipitation 36.43  
Sea Level Pressure  
Sea Level Pressure 30.12 in    
Wind  
Wind Speed 6 mph (NNE)    
Max Wind Speed 13 mph    
Max Gust Speed 18 mph    
Visibility 9 miles    
Events      
T = Trace of Precipitation, MM = Missing Value Source: NWS Daily Summary

Daily Weather History Graph

Daily Weather History Graph

Search for Another Location

Airport:

Trip Planner

Search our weather history database for the weather conditions in past years. The results will help you decide how hot, cold, wet, or windy it might be!

Date:

Astronomy

Nov. 20, 2012 Rise Set
Actual Time 6:48 AM EST 4:48 PM EST
Civil Twilight 6:20 AM EST 5:16 PM EST
Nautical Twilight 5:48 AM EST 5:48 PM EST
Astronomical Twilight 5:17 AM EST 6:19 PM EST
Moon 12:25 PM EST (11/20) No Moon Set
Length of Visible Light 10h 56m
Length of Day
9h 59m
Waxing Crescent, 51% of the Moon is Illuminated
Nov 20
Waxing Crescent
Nov 28
Full
Dec 6
Last Quarter
Dec 13
New
Dec 20
First Quarter

Hourly Weather History & Observations

Time (EST) Temp. Windchill Dew Point Humidity Pressure Visibility Wind Dir Wind Speed Gust Speed Precip Events Conditions
12:15 AM 51.8 °F - 46.4 °F 82% 30.17 in 10.0 mi NNE 9.2 mph - N/A   Overcast
12:35 AM 51.8 °F - 46.4 °F 82% 30.16 in 7.0 mi NNE 6.9 mph - N/A   Overcast
12:55 AM 51.8 °F - 46.4 °F 82% 30.15 in 7.0 mi NNE 8.1 mph - N/A   Overcast
1:18 AM 51.8 °F - 46.4 °F 82% 30.15 in 7.0 mi NNE 6.9 mph - N/A   Overcast
1:35 AM 51.8 °F - 46.4 °F 82% 30.15 in 10.0 mi NNE 8.1 mph - N/A   Overcast
1:58 AM 51.8 °F - 46.4 °F 82% 30.14 in 10.0 mi NNE 9.2 mph - N/A   Overcast
2:15 AM 51.8 °F - 46.4 °F 82% 30.14 in 10.0 mi NNE 9.2 mph - N/A   Overcast
2:55 AM 51.8 °F - 46.4 °F 82% 30.14 in 7.0 mi NNE 4.6 mph - N/A   Mostly Cloudy
3:15 AM 50.0 °F - 46.4 °F 87% 30.13 in 7.0 mi North 5.8 mph - N/A   Scattered Clouds
3:35 AM 48.2 °F - 46.4 °F 93% 30.13 in 7.0 mi North 5.8 mph - N/A   Clear
3:55 AM 48.2 °F - 46.4 °F 93% 30.13 in 7.0 mi North 3.5 mph - N/A   Clear
4:15 AM 48.2 °F - 46.4 °F 93% 30.14 in 7.0 mi North 4.6 mph - N/A   Mostly Cloudy
4:35 AM 48.2 °F - 46.4 °F 93% 30.13 in 7.0 mi NNW 4.6 mph - N/A   Mostly Cloudy
4:55 AM 50.0 °F - 46.4 °F 87% 30.14 in 7.0 mi North 4.6 mph - N/A   Mostly Cloudy
5:15 AM 50.0 °F - 46.4 °F 87% 30.14 in 7.0 mi North 5.8 mph - N/A   Overcast
5:37 AM 50.0 °F - 46.4 °F 87% 30.14 in 10.0 mi North 5.8 mph - N/A   Overcast
5:57 AM 51.8 °F - 46.4 °F 82% 30.14 in 10.0 mi North 6.9 mph - N/A   Overcast
6:16 AM 51.8 °F - 46.4 °F 82% 30.14 in 10.0 mi NNE 4.6 mph - N/A   Overcast
6:35 AM 51.8 °F - 46.4 °F 82% 30.15 in 10.0 mi North 4.6 mph - N/A   Overcast
6:55 AM 51.8 °F - 46.4 °F 82% 30.14 in 10.0 mi NNE 5.8 mph - N/A   Overcast
7:15 AM 51.8 °F - 46.4 °F 82% 30.14 in 10.0 mi NE 5.8 mph - N/A   Overcast
7:35 AM 51.8 °F - 46.4 °F 82% 30.15 in 10.0 mi NNE 8.1 mph - N/A   Overcast
7:55 AM 51.8 °F - 46.4 °F 82% 30.15 in 10.0 mi NNE 5.8 mph - N/A   Overcast
8:15 AM 51.8 °F - 46.4 °F 82% 30.15 in 10.0 mi NNE 5.8 mph - N/A   Overcast
8:35 AM 53.6 °F - 46.4 °F 77% 30.15 in 10.0 mi NE 6.9 mph - N/A   Overcast
8:55 AM 53.6 °F - 46.4 °F 77% 30.15 in 10.0 mi NNE 8.1 mph - N/A   Overcast
9:15 AM 53.6 °F - 46.4 °F 77% 30.14 in 10.0 mi NE 9.2 mph - N/A   Overcast
9:37 AM 55.4 °F - 46.4 °F 72% 30.14 in 10.0 mi NNE 9.2 mph - N/A   Overcast
9:55 AM 55.4 °F - 46.4 °F 72% 30.14 in 10.0 mi NNE 9.2 mph - N/A   Overcast
10:15 AM 55.4 °F - 44.6 °F 67% 30.14 in 10.0 mi NNE 8.1 mph - N/A   Overcast
10:35 AM 55.4 °F - 46.4 °F 72% 30.13 in 10.0 mi NE 9.2 mph - N/A   Mostly Cloudy
10:55 AM 57.2 °F - 46.4 °F 67% 30.12 in 10.0 mi North 5.8 mph - N/A   Mostly Cloudy
11:15 AM 57.2 °F - 46.4 °F 67% 30.12 in 10.0 mi North 9.2 mph - N/A   Scattered Clouds
11:35 AM 57.2 °F - 44.6 °F 63% 30.11 in 10.0 mi North 5.8 mph - N/A   Clear
11:55 AM 57.2 °F - 44.6 °F 63% 30.11 in 10.0 mi NNW 12.7 mph 18.4 mph N/A   Clear
12:15 PM 55.4 °F - 44.6 °F 67% 30.10 in 10.0 mi North 5.8 mph - N/A   Clear
12:35 PM 55.4 °F - 44.6 °F 67% 30.10 in 10.0 mi North 11.5 mph 16.1 mph N/A   Clear
12:55 PM 55.4 °F - 44.6 °F 67% 30.10 in 10.0 mi North 8.1 mph - N/A   Clear
1:15 PM 55.4 °F - 44.6 °F 67% 30.10 in 10.0 mi North 8.1 mph - N/A   Scattered Clouds
1:35 PM 55.4 °F - 44.6 °F 67% 30.09 in 10.0 mi NNW 5.8 mph - N/A   Scattered Clouds
1:55 PM 55.4 °F - 44.6 °F 67% 30.09 in 10.0 mi NNW 8.1 mph - N/A   Clear
2:15 PM 55.4 °F - 44.6 °F 67% 30.08 in 10.0 mi NNW 9.2 mph - N/A   Clear
2:36 PM 53.6 °F - 44.6 °F 72% 30.09 in 10.0 mi North 6.9 mph - N/A   Clear
2:55 PM 53.6 °F - 44.6 °F 72% 30.08 in 10.0 mi North 8.1 mph - N/A   Clear
3:15 PM 53.6 °F - 44.6 °F 72% 30.08 in 10.0 mi NNW 4.6 mph - N/A   Clear
3:35 PM 53.6 °F - 44.6 °F 72% 30.09 in 10.0 mi NNW 3.5 mph - N/A   Clear
3:55 PM 53.6 °F - 44.6 °F 72% 30.09 in 10.0 mi NNW 4.6 mph - N/A   Clear
4:15 PM 53.6 °F - 44.6 °F 72% 30.09 in 10.0 mi NNW 3.5 mph - N/A   Clear
4:55 PM 51.8 °F - 44.6 °F 76% 30.08 in 10.0 mi Calm Calm - N/A   Scattered Clouds
5:15 PM 51.8 °F - 44.6 °F 76% 30.09 in 10.0 mi Calm Calm - N/A   Mostly Cloudy
5:35 PM 51.8 °F - 44.6 °F 76% 30.09 in 10.0 mi East 4.6 mph - N/A   Mostly Cloudy
5:55 PM 50.0 °F - 44.6 °F 82% 30.09 in 10.0 mi Calm Calm - N/A   Scattered Clouds
6:15 PM 48.2 °F - 44.6 °F 87% 30.10 in 10.0 mi East 3.5 mph - N/A   Clear
6:35 PM 48.2 °F - 44.6 °F 87% 30.10 in 10.0 mi NE 5.8 mph - N/A   Clear
6:55 PM 48.2 °F - 42.8 °F 82% 30.11 in 10.0 mi Calm Calm - N/A   Clear
7:15 PM 48.2 °F - 44.6 °F 87% 30.10 in 10.0 mi NE 4.6 mph - N/A   Clear
7:35 PM 46.4 °F - 42.8 °F 87% 30.11 in 10.0 mi Calm Calm - N/A   Clear
7:55 PM 44.6 °F - 42.8 °F 93% 30.12 in 7.0 mi Calm Calm - N/A   Clear
8:15 PM 46.4 °F 44.3 °F 42.8 °F 87% 30.11 in 7.0 mi NE 4.6 mph - N/A   Clear
8:35 PM 46.4 °F 45.2 °F 42.8 °F 87% 30.11 in 10.0 mi NNE 3.5 mph - N/A   Clear
8:55 PM 46.4 °F 45.2 °F 42.8 °F 87% 30.11 in 7.0 mi NNE 3.5 mph - N/A   Clear
9:15 PM 44.6 °F 43.1 °F 42.8 °F 93% 30.11 in 7.0 mi NE 3.5 mph - N/A   Clear
9:35 PM 44.6 °F 42.2 °F 42.8 °F 93% 30.11 in 10.0 mi NNE 4.6 mph - N/A   Clear
9:55 PM 44.6 °F 43.1 °F 42.8 °F 93% 30.11 in 10.0 mi North 3.5 mph - N/A   Clear
10:15 PM 44.6 °F 41.4 °F 41.0 °F 87% 30.12 in 10.0 mi North 5.8 mph - N/A   Clear
10:35 PM 44.6 °F 42.2 °F 41.0 °F 87% 30.12 in 10.0 mi North 4.6 mph - N/A   Scattered Clouds
10:55 PM 44.6 °F 42.2 °F 41.0 °F 87% 30.11 in 10.0 mi North 4.6 mph - N/A   Clear
11:16 PM 44.6 °F 41.4 °F 41.0 °F 87% 30.11 in 10.0 mi NNE 5.8 mph - N/A   Clear
11:35 PM 44.6 °F 41.4 °F 41.0 °F 87% 30.10 in 10.0 mi North 5.8 mph - N/A   Clear
11:55 PM 44.6 °F 41.4 °F 41.0 °F 87% 30.10 in 10.0 mi North 5.8 mph - N/A   Clear